• MPC Preparation (Info)

  • MPEC 2015-B26 : 2015 AE45

    The following Minor Planet Electronic Circular may be linked-to from your own Web pages, but must not otherwise be redistributed electronically.

    A form allowing access to any MPEC is at the bottom of this page.


    Read MPEC 2015-B25 Read MPEC 2015-B27


    M.P.E.C. 2015-B26                                Issued 2015 Jan. 17, 15:50 UT
    
         The Minor Planet Electronic Circulars contain information on unusual
             minor planets and routine data on comets.  They are published
       on behalf of Commission 20 of the International Astronomical Union by the
              Minor Planet Center, Smithsonian Astrophysical Observatory,
                              Cambridge, MA 02138, U.S.A.
    
                 Prepared using the Tamkin Foundation Computer Network
    
                                  MPC@CFA.HARVARD.EDU
                URL https://www.minorplanetcenter.net/    ISSN 1523-6714
    
                                       2015 AE45
    
    Observations:
         K15A45E* C2015 01 15.42841 09 58 23.898+04 17 23.70         21.0 wLEB026F51
         K15A45E  C2015 01 15.45228 09 58 14.352+04 14 55.43         21.2 wLEB026F51
         K15A45E  C2015 01 15.46426 09 58 09.526+04 13 40.71         21.3 wLEB026F51
         K15A45E KC2015 01 16.33398109 53 03.42 +02 48 38.1          20.8 RtEB026W86
         K15A45E KC2015 01 16.33813909 53 01.85 +02 48 13.8          21.4 RtEB026W86
         K15A45E KC2015 01 16.34227109 53 00.27 +02 47 50.0          21.7 RtEB026W86
         K15A45E KC2015 01 16.34641709 52 58.73 +02 47 26.4          20.8 RtEB026W86
         K15A45E KC2015 01 16.34892709 52 57.77 +02 47 11.9          21.0 RtEB026W86
         K15A45E _C2015 01 16.56303509 51 47.480+02 25 18.61         20.5 RtEB026568
         K15A45E _C2015 01 16.56437509 51 46.997+02 25 11.39         20.6 RtEB026568
         K15A45E _C2015 01 16.56567009 51 46.490+02 25 03.77         20.8 RtEB026568
         K15A45E KC2015 01 17.53465 09 46 36.09 +00 58 02.7          21.2 RoEB026291
         K15A45E KC2015 01 17.53709 09 46 35.30 +00 57 50.3          21.3 RoEB026291
         K15A45E KC2015 01 17.53951 09 46 34.45 +00 57 38.4          21.1 RoEB026291
    
    Observer details:
    291 LPL/Spacewatch II.  Observer T. H. Bressi.  1.8-m f/2.7 reflector + CCD.
    568 Mauna Kea.  Observers R. J. Wainscoat, A. Draginda.  Measurers M. Micheli,
        R. J. Wainscoat.  3.6-m Canada-France-Hawaii Telescope + CCD.
    F51 Pan-STARRS 1, Haleakala.  Observers B. Gibson, T. Goggia, N. Primak,
        A. Schultz, M. Willman.  Measurers K. Chambers, S. Chastel, L. Denneau,
        H. Flewelling, M. Huber, E. Magnier, E. Schunova, R. Wainscoat, C. Waters,
        R. Weryk.  1.8-m Ritchey-Chretien + CCD.
    W86 Cerro Tololo-LCOGT B.  Observer T. Lister.  1.0-m f/8 Ritchey-Chretien
        + CCD.
    
    Orbital elements:
    2015 AE45                                                Earth MOID = 0.0328 AU
    Epoch 2014 Dec. 9.0 TT = JDT 2457000.5                  MPC
    M   4.39701              (2000.0)            P               Q
    n   0.61487155     Peri.  132.41345     +0.39244029     -0.90737139
    a   1.3696611      Node   293.90480     +0.78810938     +0.41611955
    e   0.3041752      Incl.    9.47893     +0.47420905     +0.05934380
    P   1.60           H   25.3           G   0.15           U   7
    Residuals in seconds of arc
    150115 F51  0.1+  0.0     150116 W86  0.4-  0.3-    150116 568  0.1+  0.1+
    150115 F51  0.0   0.1+    150116 W86  0.2-  0.0     150117 291  0.1+  0.3-
    150115 F51  0.1-  0.2-    150116 W86  0.5-  0.1-    150117 291  0.4+  0.2-
    150116 W86  0.1+  0.1+    150116 568  0.2+  0.2+    150117 291  0.4-  0.3+
    150116 W86  0.0   0.2-    150116 568  0.4+  0.5+
    
    Ephemeris:
    2015 AE45                a,e,i = 1.37, 0.30, 9                   q = 0.9530
    Date    TT    R. A. (2000) Decl.     Delta      r     Elong.  Phase     V
    2014 12 18    17 33 16.5 +50 53 04   0.07829 0.9658    74.3   101.2    23.4
    ...
    2015 01 02    12 35 02.4 +41 32 57   0.04832 0.9988   107.3    70.0    21.2
    ...
    2015 01 10    10 39 25.4 +16 22 07   0.05677 1.0233   133.5    44.2    20.8
    ...
    2015 01 16    09 54 58.8 +03 20 06   0.07323 1.0443   144.6    33.1    21.1
    2015 01 17    09 49 28.2 +01 45 54   0.07650 1.0479   145.8    31.8    21.2
    2015 01 18    09 44 21.2 +00 20 15   0.07988 1.0517   146.9    30.7    21.2
    ...
    2015 01 24    09 20 06.8 -05 49 33   0.1023  1.0750   151.1    26.2    21.7
    ...
    2015 02 01    08 59 31.0 -09 51 39   0.1365  1.1084   152.8    24.0    22.3
    ...
    2015 02 16    08 41 21.3 -11 28 29   0.2118  1.1754   149.6    25.1    23.4
    
    A. U. Tomatic                (C) Copyright 2015 MPC           M.P.E.C. 2015-B26
    

    Read MPEC 2015-B25 Read MPEC 2015-B27


    MPEC number:

    Enter an MPEC number in one of the following forms:

    • 1997-B01 (the full form)
    • J97B01 (the packed version of the full form)
    • B01 (the abbreviated form)